| time (UTC) | temp C | wind direction | speed KPH | gust KPH | rain 1hr cm | rain 24hr cm | rain mn cm | humidity % | barometer mb |
| 20260507134106 | 18 | 235 | 4.8 | 0.0 | 0.00 | 0.00 | 0.03 | 57 | 1013.4 |
| 20260507133529 | 18 | 297 | 6.4 | 0.0 | 0.00 | 0.00 | 0.03 | 56 | 1013.4 |
| 20260507133049 | 18 | 324 | 8.0 | 0.0 | 0.00 | 0.00 | 0.03 | 56 | 1013.5 |
| 20260507133030 | 18 | 301 | 8.0 | 0.0 | 0.00 | 0.00 | 0.03 | 58 | 1013.5 |
| 20260507132541 | 18 | 259 | 6.4 | 0.0 | 0.00 | 0.00 | 0.03 | 63 | 1013.5 |
| 20260507132015 | 18 | 271 | 6.4 | 0.0 | 0.00 | 0.00 | 0.03 | 62 | 1013.6 |
| 20260507131537 | 18 | 303 | 6.4 | 0.0 | 0.00 | 0.00 | 0.03 | 63 | 1013.6 |
| 20260507131521 | 17 | 315 | 6.4 | 0.0 | 0.00 | 0.00 | 0.03 | 64 | 1013.6 |
| 20260507131035 | 17 | 186 | 4.8 | 0.0 | 0.00 | 0.00 | 0.03 | 65 | 1013.6 |
| 20260507130513 | 17 | 242 | 3.2 | 0.0 | 0.00 | 0.00 | 0.03 | 67 | 1013.7 |
| 20260507130021 | 16 | 74 | 3.2 | 0.0 | 0.00 | 0.00 | 0.03 | 64 | 1013.7 |
| 20260507130008 | 16 | 71 | 3.2 | 0.0 | 0.00 | 0.00 | 0.03 | 64 | 1013.7 |
| 20260507125525 | 16 | 325 | 6.4 | 0.0 | 0.00 | 0.00 | 0.03 | 66 | 1013.6 |
| 20260507125019 | 16 | 309 | 6.4 | 0.0 | 0.00 | 0.00 | 0.03 | 67 | 1013.7 |
| 20260507124619 | 16 | 298 | 4.8 | 0.0 | 0.00 | 0.00 | 0.03 | 67 | 1013.8 |
| 20260507124550 | 16 | 282 | 3.2 | 0.0 | 0.00 | 0.00 | 0.03 | 67 | 1013.7 |
| 20260507124017 | 16 | 283 | 3.2 | 0.0 | 0.00 | 0.00 | 0.03 | 68 | 1013.8 |
| 20260507123518 | 15 | 285 | 4.8 | 0.0 | 0.00 | 0.00 | 0.03 | 68 | 1013.8 |
| 20260507123053 | 15 | 242 | 6.4 | 0.0 | 0.00 | 0.00 | 0.03 | 65 | 1013.9 |
| 20260507123028 | 15 | 298 | 8.0 | 0.0 | 0.00 | 0.00 | 0.03 | 65 | 1013.8 |
| 20260507122531 | 16 | 228 | 8.0 | 0.0 | 0.00 | 0.00 | 0.03 | 66 | 1013.8 |
| 20260507122017 | 16 | 257 | 9.7 | 0.0 | 0.00 | 0.00 | 0.03 | 65 | 1013.8 |
| 20260507121553 | 16 | 249 | 11.3 | 0.0 | 0.00 | 0.00 | 0.03 | 65 | 1013.9 |
| 20260507121518 | 16 | 259 | 11.3 | 0.0 | 0.00 | 0.00 | 0.03 | 65 | 1013.8 |
| 20260507121018 | 16 | 303 | 11.3 | 0.0 | 0.00 | 0.00 | 0.03 | 65 | 1013.8 |
| 20260507120519 | 16 | 288 | 9.7 | 0.0 | 0.00 | 0.00 | 0.03 | 63 | 1013.8 |
| 20260507120043 | 17 | 278 | 6.4 | 0.0 | 0.00 | 0.00 | 0.03 | 64 | 1013.8 |
| 20260507115528 | 16 | 244 | 6.4 | 0.0 | 0.00 | 0.00 | 0.03 | 66 | 1013.8 |
| 20260507115028 | 16 | 278 | 8.0 | 0.0 | 0.00 | 0.00 | 0.03 | 64 | 1013.9 |
| 20260507114616 | 16 | 299 | 6.4 | 0.0 | 0.00 | 0.00 | 0.03 | 64 | 1013.9 |
| 20260507114519 | 16 | 293 | 6.4 | 0.0 | 0.00 | 0.00 | 0.03 | 65 | 1013.8 |
| 20260507114023 | 16 | 332 | 6.4 | 0.0 | 0.00 | 0.00 | 0.03 | 66 | 1013.9 |
| 20260507113551 | 16 | 217 | 8.0 | 0.0 | 0.00 | 0.00 | 0.03 | 68 | 1013.9 |
| 20260507113103 | 15 | 254 | 9.7 | 0.0 | 0.00 | 0.00 | 0.03 | 71 | 1013.9 |
| 20260507113038 | 16 | 244 | 9.7 | 0.0 | 0.00 | 0.00 | 0.03 | 70 | 1013.9 |
| 20260507112526 | 16 | 298 | 9.7 | 0.0 | 0.00 | 0.00 | 0.03 | 68 | 1013.9 |
| 20260507112018 | 16 | 268 | 8.0 | 0.0 | 0.00 | 0.00 | 0.03 | 71 | 1013.9 |
| 20260507111603 | 15 | 268 | 8.0 | 0.0 | 0.00 | 0.00 | 0.03 | 73 | 1014.1 |
| 20260507111523 | 15 | 253 | 8.0 | 0.0 | 0.00 | 0.00 | 0.03 | 73 | 1014.0 |
| 20260507111014 | 15 | 263 | 6.4 | 0.0 | 0.00 | 0.00 | 0.03 | 75 | 1014.0 |
| 20260507110525 | 14 | 248 | 6.4 | 0.0 | 0.00 | 0.00 | 0.03 | 72 | 1014.0 |
| 20260507110113 | 14 | 265 | 8.0 | 0.0 | 0.00 | 0.00 | 0.03 | 70 | 1014.0 |
| 20260507110034 | 15 | 295 | 9.7 | 0.0 | 0.00 | 0.00 | 0.03 | 70 | 1014.0 |
| 20260507105521 | 15 | 278 | 9.7 | 0.0 | 0.00 | 0.00 | 0.03 | 69 | 1014.0 |
| 20260507105015 | 16 | 297 | 9.7 | 0.0 | 0.00 | 0.00 | 0.03 | 67 | 1014.0 |
| 20260507104617 | 16 | 212 | 8.0 | 0.0 | 0.00 | 0.00 | 0.03 | 65 | 1014.0 |
| 20260507104547 | 16 | 265 | 8.0 | 0.0 | 0.00 | 0.00 | 0.03 | 65 | 1014.0 |
| 20260507104018 | 16 | 225 | 3.2 | 0.0 | 0.00 | 0.00 | 0.03 | 58 | 1013.9 |
| 20260507103528 | 16 | 217 | 3.2 | 0.0 | 0.00 | 0.00 | 0.03 | 60 | 1014.0 |
| 20260507103015 | 16 | 235 | 4.8 | 0.0 | 0.00 | 0.00 | 0.03 | 62 | 1014.0 |
| 20260507103000 | 16 | 235 | 4.8 | 0.0 | 0.00 | 0.00 | 0.03 | 62 | 1014.1 |
| 20260507102528 | 16 | 196 | 4.8 | 0.0 | 0.00 | 0.00 | 0.03 | 61 | 1014.0 |
| 20260507102037 | 16 | 232 | 6.4 | 0.0 | 0.00 | 0.00 | 0.03 | 66 | 1014.0 |
| 20260507101549 | 16 | 320 | 4.8 | 0.0 | 0.00 | 0.00 | 0.03 | 65 | 1014.1 |
| 20260507101511 | 15 | 318 | 4.8 | 0.0 | 0.00 | 0.00 | 0.03 | 66 | 1014.1 |
| 20260507101035 | 15 | 297 | 3.2 | 0.0 | 0.00 | 0.00 | 0.03 | 65 | 1014.1 |
| 20260507100518 | 15 | 245 | 1.6 | 0.0 | 0.00 | 0.00 | 0.03 | 70 | 1014.2 |
| 20260507100104 | 15 | 245 | 1.6 | 0.0 | 0.00 | 0.00 | 0.03 | 68 | 1014.2 |
| 20260507100033 | 15 | 245 | 1.6 | 0.0 | 0.00 | 0.00 | 0.03 | 69 | 1014.3 |
| 20260507095515 | 15 | 231 | 4.8 | 0.0 | 0.00 | 0.00 | 0.03 | 66 | 1014.2 |
| 20260507095043 | 15 | 227 | 3.2 | 0.0 | 0.00 | 0.00 | 0.03 | 65 | 1014.2 |
| 20260507094520 | 15 | 202 | 1.6 | 0.0 | 0.00 | 0.00 | 0.03 | 68 | 1014.2 |
| 20260507094030 | 15 | 221 | 1.6 | 0.0 | 0.00 | 0.00 | 0.03 | 66 | 1014.2 |
| 20260507093533 | 15 | 263 | 1.6 | 0.0 | 0.00 | 0.00 | 0.03 | 67 | 1014.3 |
| 20260507093116 | 15 | 189 | 3.2 | 0.0 | 0.00 | 0.00 | 0.03 | 69 | 1014.3 |
| 20260507093027 | 15 | 284 | 3.2 | 0.0 | 0.00 | 0.00 | 0.03 | 68 | 1014.2 |
| 20260507092519 | 15 | 290 | 3.2 | 0.0 | 0.00 | 0.00 | 0.03 | 69 | 1014.2 |
| 20260507092023 | 15 | 229 | 3.2 | 0.0 | 0.00 | 0.00 | 0.03 | 72 | 1014.3 |
| 20260507091549 | 14 | 301 | 3.2 | 0.0 | 0.00 | 0.00 | 0.03 | 72 | 1014.3 |
| 20260507091516 | 14 | 301 | 3.2 | 0.0 | 0.00 | 0.00 | 0.03 | 72 | 1014.3 |
| 20260507091045 | 14 | 222 | 1.6 | 0.0 | 0.00 | 0.00 | 0.03 | 71 | 1014.2 |
| 20260507090537 | 14 | 111 | 1.6 | 0.0 | 0.00 | 0.00 | 0.03 | 72 | 1014.3 |
| 20260507090047 | 13 | 78 | 3.2 | 0.0 | 0.00 | 0.00 | 0.03 | 71 | 1014.4 |
| 20260507090029 | 14 | 78 | 4.8 | 0.0 | 0.00 | 0.00 | 0.03 | 71 | 1014.3 |
| 20260507085524 | 14 | 198 | 4.8 | 0.0 | 0.00 | 0.00 | 0.03 | 74 | 1014.4 |
| 20260507074614 | 10 | 134 | 4.8 | 0.0 | 0.00 | 0.00 | 0.03 | 85 | 1014.4 |
| 20260507074525 | 10 | 202 | 6.4 | 0.0 | 0.00 | 0.00 | 0.03 | 85 | 1014.3 |
| 20260507074022 | 10 | 124 | 6.4 | 0.0 | 0.00 | 0.00 | 0.03 | 86 | 1014.3 |
| 20260507073058 | 10 | 157 | 4.8 | 0.0 | 0.00 | 0.00 | 0.03 | 88 | 1014.3 |
| 20260507073024 | 10 | 160 | 4.8 | 0.0 | 0.00 | 0.00 | 0.03 | 88 | 1014.3 |
| 20260507072532 | 10 | 184 | 4.8 | 0.0 | 0.00 | 0.00 | 0.03 | 90 | 1014.3 |
| 20260507072016 | 10 | 157 | 3.2 | 0.0 | 0.00 | 0.00 | 0.03 | 91 | 1014.3 |
| 20260507071552 | 9 | 145 | 4.8 | 0.0 | 0.00 | 0.00 | 0.03 | 91 | 1014.4 |
| 20260507071514 | 10 | 128 | 4.8 | 0.0 | 0.00 | 0.00 | 0.03 | 91 | 1014.3 |
| 20260507071027 | 9 | 149 | 3.2 | 0.0 | 0.00 | 0.00 | 0.03 | 92 | 1014.2 |
| 20260507070526 | 9 | 159 | 3.2 | 0.0 | 0.00 | 0.00 | 0.03 | 92 | 1014.2 |
| 20260507070054 | 9 | 150 | 3.2 | 0.0 | 0.00 | 0.00 | 0.03 | 92 | 1014.3 |
| 20260507070022 | 9 | 155 | 3.2 | 0.0 | 0.00 | 0.00 | 0.03 | 92 | 1014.2 |
| 20260507065526 | 9 | 194 | 3.2 | 0.0 | 0.00 | 0.00 | 0.03 | 93 | 1014.3 |
| 20260507065027 | 9 | 174 | 3.2 | 0.0 | 0.00 | 0.00 | 0.03 | 93 | 1014.3 |
| 20260507064536 | 8 | 159 | 3.2 | 0.0 | 0.00 | 0.00 | 0.03 | 93 | 1014.2 |
| 20260507064517 | 8 | 159 | 4.8 | 0.0 | 0.00 | 0.00 | 0.03 | 93 | 1014.3 |
| 20260507064021 | 8 | 151 | 4.8 | 0.0 | 0.00 | 0.00 | 0.03 | 93 | 1014.2 |
| 20260507063521 | 8 | 171 | 3.2 | 0.0 | 0.00 | 0.00 | 0.03 | 93 | 1014.2 |
| 20260507063114 | 8 | 188 | 3.2 | 0.0 | 0.00 | 0.00 | 0.03 | 93 | 1014.2 |
| 20260507063031 | 8 | 197 | 3.2 | 0.0 | 0.00 | 0.00 | 0.03 | 93 | 1014.2 |
| 20260507062525 | 8 | 195 | 1.6 | 0.0 | 0.00 | 0.00 | 0.03 | 93 | 1014.1 |
| 20260507062022 | 8 | 145 | 1.6 | 0.0 | 0.00 | 0.00 | 0.03 | 93 | 1014.0 |
| 20260507061552 | 8 | 132 | 1.6 | 0.0 | 0.00 | 0.00 | 0.03 | 93 | 1014.0 |
| 20260507061521 | 8 | 132 | 1.6 | 0.0 | 0.00 | 0.00 | 0.03 | 93 | 1013.9 |
| 20260507061015 | 8 | 120 | 1.6 | 0.0 | 0.00 | 0.00 | 0.03 | 93 | 1013.8 |
| 20260507060536 | 8 | 120 | 0.0 | 0.0 | 0.00 | 0.00 | 0.03 | 93 | 1013.8 |
| 20260507060030 | 8 | 120 | 0.0 | 0.0 | 0.00 | 0.00 | 0.03 | 93 | 1013.8 |
| 20260507060011 | 8 | 120 | 0.0 | 0.0 | 0.00 | 0.00 | 0.03 | 93 | 1013.8 |
| 20260507055531 | 8 | 120 | 0.0 | 0.0 | 0.00 | 0.00 | 0.03 | 93 | 1013.8 |
| 20260507055038 | 8 | 120 | 1.6 | 0.0 | 0.00 | 0.00 | 0.03 | 93 | 1013.8 |
| 20260507054547 | 8 | 120 | 1.6 | 0.0 | 0.00 | 0.00 | 0.03 | 92 | 1013.8 |
| 20260507054511 | 8 | 120 | 1.6 | 0.0 | 0.00 | 0.00 | 0.03 | 92 | 1013.8 |
| 20260507054037 | 8 | 120 | 1.6 | 0.0 | 0.00 | 0.00 | 0.03 | 92 | 1013.7 |
| 20260507053543 | 8 | 120 | 3.2 | 0.0 | 0.00 | 0.00 | 0.03 | 92 | 1013.7 |
| 20260507053042 | 8 | 145 | 3.2 | 0.0 | 0.00 | 0.00 | 0.03 | 92 | 1013.6 |
| 20260506221538 | 8 | 149 | 9.7 | 0.0 | 0.00 | 0.00 | 0.00 | 88 | 1012.1 |
| 20260506221507 | 7 | 117 | 9.7 | 0.0 | 0.00 | 0.00 | 0.00 | 88 | 1012.1 |
| 20260506221040 | 8 | 126 | 11.3 | 0.0 | 0.00 | 0.00 | 0.00 | 88 | 1012.2 |
| 20260506220523 | 8 | 110 | 11.3 | 0.0 | 0.00 | 0.00 | 0.00 | 88 | 1012.2 |
| 20260506220110 | 7 | 132 | 11.3 | 0.0 | 0.00 | 0.00 | 0.00 | 87 | 1012.2 |
| 20260506220030 | 8 | 112 | 11.3 | 0.0 | 0.00 | 0.00 | 0.79 | 87 | 1012.2 |
| 20260506215520 | 8 | 125 | 11.3 | 0.0 | 0.00 | 0.00 | 0.79 | 87 | 1012.1 |
| 20260506215022 | 8 | 124 | 9.7 | 0.0 | 0.00 | 0.00 | 0.79 | 88 | 1012.0 |
| 20260506214618 | 8 | 127 | 9.7 | 0.0 | 0.00 | 0.00 | 0.79 | 88 | 1012.0 |
| 20260506214514 | 8 | 111 | 9.7 | 0.0 | 0.00 | 0.00 | 0.79 | 88 | 1012.0 |
| 20260506213518 | 8 | 96 | 8.0 | 0.0 | 0.00 | 0.00 | 0.79 | 87 | 1012.0 |
| 20260506213046 | 7 | 123 | 8.0 | 0.0 | 0.00 | 0.00 | 0.79 | 87 | 1012.1 |
| 20260506213025 | 8 | 114 | 8.0 | 0.0 | 0.00 | 0.00 | 0.79 | 87 | 1012.0 |
| 20260506212620 | 8 | 112 | 8.0 | 0.0 | 0.00 | 0.00 | 0.79 | 87 | 1012.0 |